Rochelle, IL

1:58 PM CST on December 17, 2017 (GMT -0600)
Rochelle

Weather History for KRPJ - February, 2013

Change the Weather History Date:

Saturday, February 9, 2013

  Actual Average (KRFD) Record (KRFD)
Temperature  
Mean Temperature 26 °F -  
Max Temperature 31 °F 28 °F 54 °F (1925)
Min Temperature 21 °F 9 °F -25 °F (1933)
Degree Days  
Heating Degree Days 39    
Moisture  
Dew Point 25 °F    
Average Humidity 90    
Maximum Humidity 97    
Minimum Humidity 84    
Precipitation  
Precipitation 0.00 in - - ()
Sea Level Pressure  
Sea Level Pressure 30.24 in    
Wind  
Wind Speed 9 mph (SSE)    
Max Wind Speed 21 mph    
Max Gust Speed 25 mph    
Visibility 9 miles    
Events      
Averages and records for this station are not official NWS values.
T = Trace of Precipitation, MM = Missing Value Source: NWS Daily Summary

Daily Weather History Graph

Daily Weather History Graph

Search for Another Location

Airport or City:

Trip Planner

Search our weather history database for the weather conditions in past years. The results will help you decide how hot, cold, wet, or windy it might be!

Date:

Astronomy

Feb. 09, 2013 Rise Set
Actual Time 6:59 AM CST 5:22 PM CST
Civil Twilight 6:30 AM CST 5:51 PM CST
Nautical Twilight 5:57 AM CST 6:24 PM CST
Astronomical Twilight 5:25 AM CST 6:56 PM CST
Moon 6:10 AM CST (2/9) 5:05 PM CST (2/9)
Length of Visible Light 11h 20m
Length of Day
10h 22m
Waning Crescent, 0% of the Moon is Illuminated
Feb 9
Waning Crescent
Feb 10
New
Feb 17
First Quarter
Feb 25
Full
Mar 4
Last Quarter

Hourly Weather History & Observations

Time (CST) Temp. Windchill Dew Point Humidity Pressure Visibility Wind Dir Wind Speed Gust Speed Precip Events Conditions
12:15 AM 21.6 °F 15.3 °F 20.5 °F 96% 30.37 in 7.0 mi SE 4.6 mph - N/A   Overcast
12:35 AM 21.7 °F 15.5 °F 20.7 °F 96% 30.37 in 7.0 mi SE 4.6 mph - N/A   Overcast
12:55 AM 21.9 °F 17.2 °F 20.8 °F 96% 30.38 in 7.0 mi ESE 3.5 mph - N/A   Overcast
1:15 AM 22.1 °F - 20.8 °F 95% 30.38 in 7.0 mi Calm Calm - N/A   Overcast
1:35 AM 22.1 °F - 21.0 °F 96% 30.38 in 10.0 mi Calm Calm - N/A   Overcast
1:55 AM 22.6 °F 18.0 °F 21.2 °F 94% 30.37 in 10.0 mi SE 3.5 mph - N/A   Overcast
2:15 AM 22.6 °F 18.0 °F 21.2 °F 94% 30.37 in 10.0 mi SE 3.5 mph - N/A   Overcast
2:35 AM 23.0 °F 17.0 °F 21.6 °F 94% 30.36 in 10.0 mi SSE 4.6 mph - N/A   Overcast
2:55 AM 23.7 °F 15.6 °F 22.1 °F 94% 30.36 in 10.0 mi SSE 6.9 mph - N/A   Overcast
3:15 AM 23.9 °F 13.5 °F 22.5 °F 94% 30.35 in 10.0 mi SSE 10.4 mph - N/A   Overcast
3:35 AM 23.9 °F 15.8 °F 22.6 °F 95% 30.36 in 10.0 mi South 6.9 mph - N/A   Overcast
3:55 AM 24.6 °F 15.1 °F 22.6 °F 92% 30.35 in 10.0 mi SSE 9.2 mph - N/A   Overcast
4:15 AM 24.8 °F 15.3 °F 23.0 °F 93% 30.36 in 10.0 mi South 9.2 mph - N/A   Overcast
4:35 AM 24.8 °F 14.0 °F 22.6 °F 91% 30.36 in 10.0 mi South 11.5 mph 16.1 mph N/A   Overcast
4:55 AM 24.8 °F 14.0 °F 23.0 °F 93% 30.36 in 10.0 mi South 11.5 mph - N/A   Overcast
5:15 AM 24.8 °F 14.6 °F 23.0 °F 93% 30.35 in 10.0 mi South 10.4 mph - N/A   Overcast
5:35 AM 25.3 °F 16.0 °F 23.0 °F 91% 30.36 in 10.0 mi SSE 9.2 mph - N/A   Overcast
5:55 AM 25.3 °F 16.7 °F 23.2 °F 91% 30.35 in 10.0 mi South 8.1 mph - N/A   Overcast
6:15 AM 25.7 °F 15.7 °F 23.0 °F 89% 30.34 in 10.0 mi SSE 10.4 mph - N/A   Overcast
6:35 AM 25.7 °F 15.7 °F 23.0 °F 89% 30.34 in 10.0 mi South 10.4 mph - N/A   Overcast
6:55 AM 26.1 °F 14.5 °F 23.0 °F 88% 30.35 in 10.0 mi South 13.8 mph - N/A   Overcast
7:15 AM 26.2 °F 15.8 °F 23.0 °F 88% 30.35 in 10.0 mi South 11.5 mph - N/A   Overcast
7:35 AM 26.4 °F 15.0 °F 23.0 °F 87% 30.35 in 10.0 mi South 13.8 mph 17.3 mph N/A   Overcast
7:55 AM 26.6 °F 16.2 °F 23.7 °F 89% 30.35 in 10.0 mi SSE 11.5 mph 16.1 mph N/A   Overcast
8:15 AM 26.6 °F 14.7 °F 23.2 °F 87% 30.35 in 10.0 mi SSE 15.0 mph - N/A   Overcast
8:35 AM 26.6 °F 15.2 °F 23.0 °F 86% 30.34 in 10.0 mi South 13.8 mph - N/A   Overcast
8:55 AM 26.6 °F 14.7 °F 23.4 °F 88% 30.33 in 10.0 mi South 15.0 mph - N/A   Overcast
9:15 AM 27.1 °F 15.4 °F 23.9 °F 88% 30.34 in 10.0 mi South 15.0 mph - N/A   Overcast
9:35 AM 27.5 °F 15.4 °F 24.3 °F 88% 30.33 in 10.0 mi South 16.1 mph - N/A   Overcast
9:55 AM 27.9 °F 16.8 °F 24.4 °F 87% 30.33 in 10.0 mi South 13.8 mph - N/A   Overcast
10:15 AM 28.2 °F 15.9 °F 24.6 °F 86% 30.32 in 10.0 mi South 17.3 mph - N/A   Overcast
10:35 AM 28.4 °F 17.0 °F 24.6 °F 86% 30.32 in 10.0 mi SSE 15.0 mph 20.7 mph N/A   Overcast
10:55 AM 28.8 °F 16.6 °F 24.6 °F 84% 30.31 in 10.0 mi South 17.3 mph 20.7 mph N/A   Overcast
11:15 AM 29.1 °F 17.1 °F 25.0 °F 85% 30.30 in 10.0 mi South 17.3 mph - N/A   Overcast
11:35 AM 29.3 °F 17.3 °F 25.0 °F 84% 30.29 in 10.0 mi South 17.3 mph - N/A   Overcast
11:55 AM 29.3 °F 17.3 °F 25.2 °F 85% 30.28 in 10.0 mi South 17.3 mph - N/A   Overcast
12:15 PM 29.7 °F 17.4 °F 25.5 °F 85% 30.26 in 10.0 mi South 18.4 mph - N/A   Overcast
12:35 PM 29.8 °F 18.4 °F 26.1 °F 86% 30.25 in 10.0 mi South 16.1 mph - N/A   Overcast
12:55 PM 29.8 °F 17.7 °F 25.9 °F 85% 30.23 in 10.0 mi SSE 18.4 mph 21.9 mph N/A   Overcast
1:15 PM 29.7 °F 17.4 °F 25.5 °F 85% 30.23 in 10.0 mi South 18.4 mph 25.3 mph N/A   Overcast
1:35 PM 29.8 °F 17.0 °F 26.1 °F 86% 30.22 in 10.0 mi South 20.7 mph - N/A   Overcast
1:55 PM 30.0 °F 17.2 °F 26.2 °F 86% 30.21 in 10.0 mi SSE 20.7 mph - N/A   Overcast
2:15 PM 30.2 °F 17.8 °F 26.6 °F 86% 30.20 in 10.0 mi SSE 19.6 mph - N/A   Overcast
2:35 PM 30.2 °F 18.5 °F 26.2 °F 85% 30.20 in 10.0 mi SSE 17.3 mph - N/A   Overcast
2:55 PM 30.6 °F 20.2 °F 26.8 °F 86% 30.20 in 10.0 mi South 13.8 mph - N/A   Overcast
3:15 PM 31.1 °F 20.9 °F 27.7 °F 87% 30.20 in 10.0 mi South 13.8 mph 17.3 mph N/A   Overcast
3:35 PM 30.9 °F 20.2 °F 27.1 °F 86% 30.18 in 10.0 mi SSE 15.0 mph - N/A   Overcast
3:55 PM 30.9 °F 22.2 °F 27.7 °F 88% 30.18 in 10.0 mi SSE 10.4 mph - N/A   Overcast
4:15 PM 30.9 °F 23.5 °F 28.2 °F 90% 30.17 in 10.0 mi South 8.1 mph - N/A   Overcast
4:35 PM 31.1 °F 22.4 °F 28.2 °F 89% 30.17 in 10.0 mi SSE 10.4 mph - N/A   Overcast
4:55 PM 31.1 °F 20.9 °F 28.0 °F 88% 30.15 in 10.0 mi SSE 13.8 mph - N/A   Overcast
5:15 PM 31.1 °F 20.9 °F 28.0 °F 88% 30.15 in 10.0 mi SSE 13.8 mph - N/A   Overcast
5:35 PM 31.1 °F 21.9 °F 27.9 °F 88% 30.15 in 10.0 mi SSE 11.5 mph - N/A   Overcast
5:55 PM 30.9 °F 22.2 °F 28.0 °F 89% 30.14 in 10.0 mi SE 10.4 mph - N/A   Overcast
6:15 PM 29.8 °F 22.2 °F 27.1 °F 90% 30.14 in 10.0 mi ESE 8.1 mph - N/A   Mostly Cloudy
6:35 PM 28.4 °F 21.2 °F 26.6 °F 93% 30.13 in 10.0 mi ESE 6.9 mph - N/A   Scattered Clouds
6:55 PM 28.2 °F 19.5 °F 26.6 °F 94% 30.12 in 7.0 mi SE 9.2 mph - N/A   Clear
7:15 PM 27.5 °F 20.2 °F 26.1 °F 94% 30.12 in 10.0 mi ESE 6.9 mph - N/A   Clear
7:35 PM 26.2 °F 18.6 °F 25.0 °F 95% 30.12 in 7.0 mi ESE 6.9 mph - N/A   Clear
7:55 PM 26.4 °F 19.8 °F 25.3 °F 96% 30.11 in 10.0 mi SE 5.8 mph - N/A   Clear
8:15 PM 25.9 °F 21.7 °F 24.8 °F 96% 30.11 in 7.0 mi ESE 3.5 mph - N/A   Clear
8:35 PM 27.9 °F 20.6 °F 26.8 °F 96% 30.10 in 10.0 mi SE 6.9 mph - N/A   Clear
8:55 PM 29.1 °F 22.1 °F 27.5 °F 94% 30.10 in 10.0 mi ESE 6.9 mph - N/A   Clear
9:15 PM 28.4 °F 20.4 °F 26.6 °F 93% 30.09 in 10.0 mi ESE 8.1 mph - N/A   Clear
9:35 PM 27.5 °F 18.6 °F 26.1 °F 94% 30.09 in 7.0 mi ESE 9.2 mph - N/A   Scattered Clouds
9:55 PM 26.6 °F 17.5 °F 25.5 °F 96% 30.08 in 7.0 mi ESE 9.2 mph - N/A   Scattered Clouds
10:15 PM 26.2 °F 17.8 °F 25.0 °F 95% 30.07 in 7.0 mi ESE 8.1 mph - N/A   Clear
10:35 PM 25.7 °F 17.1 °F 24.8 °F 96% 30.06 in 7.0 mi SE 8.1 mph - N/A   Clear
10:55 PM 23.9 °F 13.5 °F 23.0 °F 96% 30.05 in 5.0 mi SE 10.4 mph - N/A   Clear
11:15 PM 23.7 °F 14.0 °F 23.0 °F 97% 30.04 in 7.0 mi SE 9.2 mph - N/A   Scattered Clouds
11:35 PM 27.1 °F 18.9 °F 25.7 °F 94% 30.04 in 10.0 mi SSE 8.1 mph - N/A   Scattered Clouds
11:55 PM 25.9 °F 20.3 °F 23.9 °F 92% 30.04 in 10.0 mi SSE 4.6 mph - N/A   Clear